Back to catalog

CZ-4 DEB

AliveSSO
NORAD 26310·DEBRIS·🇨🇳 China

Launched Oct 14, 1999 from Taiyuan Satellite Launch Center

Loading…

Next Passes (next 24 hours)

TLE

FreshSource: Space-Track

Epoch: Sep 14, 2026, 10:37 UTC

1 26310U 99057GT  26257.44265128  .00000833  00000-0  22315-3 0  9996
2 26310  98.5228 325.7482 0089471 115.0350 258.6538 14.48573847390137

Track CZ-4 DEB in real time with AllMySat

Download on the App Store